When you browse on this site, cookies collect data to enhance your experience and personalize the content and advertising you see.
Visit our Privacy Policy to learn more. By continuing to use the site, you agree to this use of cookies and data.
  • In Österreich
  • Länderverzeichnis
  • Für 7 Tage
  • Wassertemperatur
  • Satellitenkarten
  • Wetterkarte
  • News
  • Widgets
  • user-avatar
    Anmelden

    Stündliche Wetter Kozienice

    Heute, 18 Januar, Freitag

    Zeit Temperatur Niederschläge Wind Luftdruck Luftfeuchtigkeit
    00:00 +1°C° 0 mm 5 m/S 743 mmHg 88%
    01:00 +1°C° 0 mm 4 m/S 742 mmHg 88%
    02:00 +1°C° 0 mm 5 m/S 742 mmHg 88%
    03:00 +1°C° 0 mm 5 m/S 742 mmHg 88%
    04:00 +1°C° 0 mm 5 m/S 743 mmHg 88%
    05:00 0°C° 0 mm 5 m/S 743 mmHg 87%
    06:00 0°C° 0 mm 5 m/S 743 mmHg 86%
    07:00 0°C° 0 mm 5 m/S 744 mmHg 86%
    08:00 -1°C° 0 mm 6 m/S 744 mmHg 84%
    09:00 -1°C° 0 mm 6 m/S 745 mmHg 83%
    10:00 -1°C° 0 mm 7 m/S 746 mmHg 81%
    11:00 -1°C° 0.1 mm 6 m/S 746 mmHg 81%
    12:00 -2°C° 0.1 mm 6 m/S 747 mmHg 81%
    13:00 -2°C° 0.1 mm 6 m/S 748 mmHg 82%
    14:00 -1°C° 0 mm 5 m/S 749 mmHg 80%
    15:00 -2°C° 0 mm 4 m/S 749 mmHg 79%
    16:00 -3°C° 0 mm 4 m/S 750 mmHg 78%
    17:00 -3°C° 0 mm 4 m/S 751 mmHg 79%
    18:00 -2°C° 0 mm 3 m/S 751 mmHg 80%
    19:00 -4°C° 0 mm 3 m/S 752 mmHg 81%
    20:00 -4°C° 0 mm 3 m/S 753 mmHg 80%
    21:00 -4°C° 0 mm 3 m/S 753 mmHg 79%
    22:00 -4°C° 0 mm 3 m/S 754 mmHg 79%
    23:00 -4°C° 0 mm 3 m/S 754 mmHg 79%

    Morgen, 19 Januar, Samstag

    Zeit Temperatur Niederschläge Wind Luftdruck Luftfeuchtigkeit
    00:00 -4°C° 0 mm 3 m/S 754 mmHg 80%
    01:00 -4°C° 0 mm 4 m/S 755 mmHg 81%
    02:00 -4°C° 0 mm 3 m/S 755 mmHg 82%
    03:00 -4°C° 0 mm 3 m/S 755 mmHg 83%
    04:00 -4°C° 0 mm 3 m/S 755 mmHg 83%
    05:00 -4°C° 0 mm 3 m/S 755 mmHg 84%
    06:00 -4°C° 0 mm 3 m/S 756 mmHg 85%
    07:00 -4°C° 0 mm 3 m/S 756 mmHg 86%
    08:00 -4°C° 0 mm 3 m/S 756 mmHg 84%
    09:00 -2°C° 0 mm 3 m/S 756 mmHg 83%
    10:00 -2°C° 0 mm 3 m/S 756 mmHg 81%
    11:00 -1°C° 0 mm 3 m/S 756 mmHg 80%
    12:00 -1°C° 0 mm 3 m/S 756 mmHg 78%
    13:00 0°C° 0 mm 3 m/S 756 mmHg 76%
    14:00 -1°C° 0 mm 2 m/S 756 mmHg 79%
    15:00 -1°C° 0 mm 2 m/S 756 mmHg 81%
    16:00 0°C° 0 mm 1 m/S 756 mmHg 83%
    17:00 0°C° 0 mm 1 m/S 756 mmHg 84%
    18:00 0°C° 0 mm 1 m/S 756 mmHg 85%
    19:00 -3°C° 0 mm 2 m/S 756 mmHg 86%
    20:00 -3°C° 0 mm 2 m/S 756 mmHg 87%
    21:00 -3°C° 0 mm 2 m/S 756 mmHg 87%
    22:00 -3°C° 0 mm 2 m/S 756 mmHg 87%
    23:00 -3°C° 0 mm 2 m/S 756 mmHg 87%

    übermorgen, 20 Januar, Sonntag

    Zeit Temperatur Niederschläge Wind Luftdruck Luftfeuchtigkeit
    00:00 -3°C° 0 mm 2 m/S 755 mmHg 87%
    01:00 -4°C° 0 mm 2 m/S 755 mmHg 86%
    02:00 -2°C° 0 mm 1 m/S 755 mmHg 86%
    03:00 -2°C° 0 mm 1 m/S 754 mmHg 86%
    04:00 -2°C° 0 mm 1 m/S 754 mmHg 85%
    05:00 -2°C° 0 mm 1 m/S 754 mmHg 85%
    06:00 -2°C° 0 mm 1 m/S 754 mmHg 84%
    07:00 -2°C° 0 mm 1 m/S 754 mmHg 83%
    08:00 -2°C° 0 mm 1 m/S 754 mmHg 80%
    09:00 -1°C° 0 mm 1 m/S 754 mmHg 77%
    10:00 -1°C° 0 mm 1 m/S 754 mmHg 74%
    11:00 -2°C° 0 mm 0 m/S 754 mmHg 71%
    12:00 -1°C° 0 mm 0 m/S 753 mmHg 69%
    13:00 -1°C° 0 mm 0 m/S 753 mmHg 66%
    14:00 -1°C° 0 mm 0 m/S 753 mmHg 69%
    15:00 -1°C° 0 mm 1 m/S 753 mmHg 72%
    16:00 -1°C° 0 mm 1 m/S 753 mmHg 75%
    17:00 -1°C° 0 mm 1 m/S 753 mmHg 77%
    18:00 -1°C° 0 mm 1 m/S 753 mmHg 78%
    19:00 -2°C° 0 mm 1 m/S 754 mmHg 79%
    20:00 -4°C° 0 mm 2 m/S 754 mmHg 79%
    21:00 -4°C° 0 mm 2 m/S 754 mmHg 80%
    22:00 -4°C° 0 mm 2 m/S 754 mmHg 80%
    23:00 -4°C° 0 mm 2 m/S 755 mmHg 82%

    21 Januar, Montag

    Zeit Temperatur Niederschläge Wind Luftdruck Luftfeuchtigkeit
    00:00 -4°C° 0 mm 2 m/S 755 mmHg 83%
    01:00 -5°C° 0 mm 3 m/S 755 mmHg 84%
    02:00 -4°C° 0 mm 2 m/S 755 mmHg 85%
    03:00 -3°C° 0 mm 2 m/S 756 mmHg 87%
    04:00 -3°C° 0 mm 2 m/S 756 mmHg 88%
    05:00 -3°C° 0 mm 2 m/S 756 mmHg 89%
    06:00 -3°C° 0 mm 2 m/S 757 mmHg 90%
    07:00 -3°C° 0 mm 2 m/S 757 mmHg 91%
    08:00 -1°C° 0 mm 1 m/S 757 mmHg 90%
    09:00 -1°C° 0 mm 1 m/S 758 mmHg 89%
    10:00 -1°C° 0 mm 1 m/S 758 mmHg 88%
    11:00 0°C° 0 mm 1 m/S 758 mmHg 83%
    12:00 0°C° 0 mm 1 m/S 758 mmHg 79%
    13:00 +1°C° 0 mm 1 m/S 758 mmHg 74%
    14:00 -2°C° 0 mm 2 m/S 758 mmHg 77%
    15:00 -2°C° 0 mm 2 m/S 758 mmHg 79%
    16:00 -2°C° 0 mm 2 m/S 758 mmHg 81%
    17:00 -2°C° 0 mm 2 m/S 758 mmHg 81%
    18:00 -2°C° 0 mm 2 m/S 758 mmHg 81%
    19:00 -2°C° 0 mm 2 m/S 758 mmHg 81%
    20:00 -2°C° 0 mm 3 m/S 757 mmHg 81%
    21:00 -4°C° 0 mm 3 m/S 757 mmHg 82%
    22:00 -4°C° 0 mm 3 m/S 757 mmHg 82%
    23:00 -4°C° 0 mm 3 m/S 757 mmHg 83%

    22 Januar, Dienstag

    Zeit Temperatur Niederschläge Wind Luftdruck Luftfeuchtigkeit
    00:00 -4°C° 0 mm 3 m/S 756 mmHg 84%
    01:00 -4°C° 0 mm 3 m/S 756 mmHg 84%
    02:00 -4°C° 0 mm 3 m/S 756 mmHg 84%
    03:00 -4°C° 0 mm 3 m/S 755 mmHg 83%
    04:00 -4°C° 0 mm 3 m/S 755 mmHg 82%
    05:00 -5°C° 0 mm 3 m/S 754 mmHg 81%
    06:00 -5°C° 0 mm 3 m/S 754 mmHg 80%
    07:00 -5°C° 0 mm 4 m/S 753 mmHg 79%
    08:00 -5°C° 0 mm 4 m/S 753 mmHg 76%
    09:00 -4°C° 0 mm 4 m/S 753 mmHg 73%
    10:00 -4°C° 0 mm 4 m/S 753 mmHg 69%
    11:00 -3°C° 0 mm 4 m/S 752 mmHg 66%
    12:00 -3°C° 0 mm 4 m/S 751 mmHg 63%
    13:00 -2°C° 0 mm 4 m/S 751 mmHg 60%
    14:00 -3°C° 0 mm 4 m/S 750 mmHg 62%
    15:00 -3°C° 0 mm 4 m/S 749 mmHg 64%
    16:00 -4°C° 0 mm 3 m/S 749 mmHg 66%
    17:00 -4°C° 0 mm 4 m/S 748 mmHg 70%
    18:00 -4°C° 0 mm 4 m/S 748 mmHg 74%
    19:00 -5°C° 0 mm 4 m/S 747 mmHg 77%
    20:00 -6°C° 0 mm 5 m/S 747 mmHg 79%
    21:00 -6°C° 0 mm 5 m/S 746 mmHg 80%
    22:00 -6°C° 0 mm 5 m/S 746 mmHg 81%
    23:00 -7°C° 0 mm 5 m/S 745 mmHg 81%

    23 Januar, Mittwoch

    Zeit Temperatur Niederschläge Wind Luftdruck Luftfeuchtigkeit
    00:00 -7°C° 0 mm 5 m/S 745 mmHg 81%
    01:00 -7°C° 0 mm 5 m/S 744 mmHg 80%
    02:00 -7°C° 0 mm 5 m/S 743 mmHg 81%
    03:00 -7°C° 0 mm 5 m/S 743 mmHg 83%
    04:00 -7°C° 0 mm 4 m/S 742 mmHg 84%
    05:00 -7°C° 0 mm 4 m/S 742 mmHg 83%
    06:00 -7°C° 0 mm 4 m/S 742 mmHg 82%
    07:00 -7°C° 0 mm 4 m/S 741 mmHg 81%
    08:00 -7°C° 0 mm 5 m/S 741 mmHg 79%
    09:00 -6°C° 0 mm 5 m/S 741 mmHg 78%
    10:00 -6°C° 0 mm 5 m/S 740 mmHg 76%
    11:00 -5°C° 0 mm 5 m/S 740 mmHg 77%
    12:00 -5°C° 0 mm 5 m/S 739 mmHg 78%
    13:00 -5°C° 0 mm 5 m/S 738 mmHg 78%
    14:00 -5°C° 0 mm 5 m/S 738 mmHg 79%
    15:00 -5°C° 0 mm 5 m/S 737 mmHg 80%
    16:00 -4°C° 0 mm 5 m/S 737 mmHg 81%
    17:00 -4°C° 0 mm 5 m/S 737 mmHg 84%
    18:00 -4°C° 0 mm 5 m/S 736 mmHg 87%
    19:00 -4°C° 0 mm 5 m/S 736 mmHg 90%
    20:00 -2°C° 0 mm 5 m/S 736 mmHg 90%
    21:00 -2°C° 0 mm 5 m/S 736 mmHg 91%
    22:00 -2°C° 0 mm 5 m/S 735 mmHg 91%
    23:00 -2°C° 0 mm 5 m/S 735 mmHg 91%
    Mehr zeigen